WA7BMK Weather Reports


Display with metric or nautical units.
time (UTC)temp
F
wind
direction
speed
MPH
gust
MPH
rain 1hr
in
rain 24hr
in
rain mn
in
humidity
%
barometer
mb
20260831094541 53 0 0.0 0.0 0.00 0.00 0.00 87 1015.4
20260831093039 53 0 0.0 0.0 0.00 0.00 0.00 87 1015.7
20260831091548 53 0 0.0 1.0 0.00 0.00 0.00 87 1015.8
20260831090041 53 0 0.0 0.0 0.00 0.00 0.00 87 1015.8
20260831084549 53 0 0.0 0.0 0.00 0.00 0.00 86 1016.0
20260831083047 53 0 0.0 0.0 0.00 0.00 0.00 85 1016.1
20260831081600 53 0 0.0 0.0 0.00 0.00 0.00 85 1016.1
20260831080041 53 0 0.0 0.0 0.00 0.00 0.00 85 1016.3
20260831074544 53 0 0.0 0.0 0.00 0.00 0.00 84 1016.4
20260831073116 54 0 0.0 0.0 0.00 0.00 0.00 82 1016.5
20260831071543 54 0 0.0 0.0 0.00 0.00 0.00 82 1016.6
20260831070041 55 0 0.0 0.0 0.00 0.00 0.00 81 1016.7
20260831064541 55 0 0.0 0.0 0.00 0.00 0.00 80 1016.8
20260831063043 56 0 0.0 0.0 0.00 0.00 0.00 79 1017.0
20260831061545 56 0 0.0 0.0 0.00 0.00 0.00 78 1017.3
20260831060053 57 0 0.0 0.0 0.00 0.00 0.00 77 1017.3
20260831054541 57 0 0.0 0.0 0.00 0.00 0.00 76 1017.5
20260831053039 58 0 0.0 0.0 0.00 0.00 0.00 75 1017.7
20260831051543 59 0 0.0 1.0 0.00 0.00 0.00 73 1017.8
20260831050048 59 360 0.0 6.0 0.00 0.00 0.00 72 1017.9
20260831044539 59 0 0.0 4.0 0.00 0.00 0.00 71 1017.9
20260831043049 60 0 0.0 1.0 0.00 0.00 0.00 70 1017.9
20260831041548 60 0 0.0 2.0 0.00 0.00 0.00 69 1018.0
20260831040051 61 0 0.0 0.0 0.00 0.00 0.00 67 1017.9
20260831034540 61 0 0.0 1.0 0.00 0.00 0.00 66 1017.9
20260831033037 62 0 0.0 2.0 0.00 0.00 0.00 64 1017.8
20260831031536 63 0 0.0 3.0 0.00 0.00 0.00 63 1017.7
20260831030049 64 0 0.0 1.0 0.00 0.00 0.00 61 1017.7
20260831024540 66 0 0.0 1.0 0.00 0.00 0.00 59 1017.7
20260831023040 67 0 0.0 2.0 0.00 0.00 0.00 56 1017.8
20260831021542 69 0 0.0 1.0 0.00 0.00 0.00 54 1017.9
20260831020039 70 0 0.0 2.0 0.00 0.00 0.00 51 1018.0
20260831014546 70 197 0.0 3.0 0.00 0.00 0.00 49 1018.1
20260831013044 70 0 0.0 2.0 0.00 0.00 0.00 49 1018.2
20260831011541 71 254 0.0 3.0 0.00 0.00 0.00 48 1018.3
20260831010040 71 0 1.0 5.0 0.00 0.00 0.00 47 1018.4
20260831004542 72 5 0.0 4.0 0.00 0.00 0.00 47 1018.5
20260831003039 71 0 2.0 6.0 0.00 0.00 0.00 47 1018.6
20260831001538 72 311 1.0 8.0 0.00 0.00 0.00 47 1018.7
20260831000055 72 0 1.0 7.0 0.00 0.00 0.00 49 1018.8
20260830234549 71 280 2.0 4.0 0.00 0.00 0.00 49 1018.9
20260830233055 72 271 0.0 6.0 0.00 0.00 0.00 50 1018.9
20260830231545 72 274 2.0 5.0 0.00 0.00 0.00 50 1019.2
20260830230043 71 344 1.0 6.0 0.00 0.00 0.00 51 1019.2
20260830224539 71 263 1.0 7.0 0.00 0.00 0.00 54 1019.3
20260830223037 71 268 1.0 5.0 0.00 0.00 0.00 53 1019.4
20260830221549 70 336 1.0 8.0 0.00 0.00 0.00 54 1019.6
20260830220058 71 303 1.0 8.0 0.00 0.00 0.00 54 1019.6
20260830214542 69 131 2.0 5.0 0.00 0.00 0.00 57 1019.8
20260830213038 68 0 1.0 4.0 0.00 0.00 0.00 58 1020.0
20260830211548 67 0 2.0 5.0 0.00 0.00 0.00 61 1020.1
20260830210043 67 100 2.0 7.0 0.00 0.00 0.00 61 1020.2
20260830204553 66 169 0.0 3.0 0.00 0.00 0.00 62 1020.3
20260830203040 67 197 1.0 6.0 0.00 0.00 0.00 61 1020.4
20260830201556 67 0 1.0 4.0 0.00 0.00 0.00 59 1020.5
20260830200045 67 306 0.0 3.0 0.00 0.00 0.00 61 1020.6
20260830194546 66 0 2.0 5.0 0.00 0.00 0.00 63 1020.7
20260830193040 66 275 1.0 4.0 0.00 0.00 0.00 65 1020.8
20260830191614 64 260 0.0 4.0 0.00 0.00 0.00 68 1020.9
20260830190055 62 338 1.0 4.0 0.00 0.00 0.00 71 1020.9
20260830184543 62 0 1.0 5.0 0.00 0.00 0.00 71 1020.9
20260830183044 61 114 0.0 7.0 0.00 0.00 0.00 73 1021.1
20260830181542 61 211 0.0 3.0 0.00 0.00 0.00 74 1021.1
20260830180044 60 0 1.0 4.0 0.00 0.00 0.00 75 1021.0
20260830174549 60 0 0.0 4.0 0.00 0.00 0.00 76 1021.0
20260830173049 60 153 0.0 4.0 0.00 0.00 0.00 75 1020.9
20260830171546 60 0 1.0 8.0 0.00 0.00 0.00 75 1020.8
20260830170044 58 360 0.0 2.0 0.00 0.00 0.00 78 1020.8
20260830164539 58 0 0.0 3.0 0.00 0.00 0.00 79 1020.8
20260830163042 57 0 0.0 8.0 0.00 0.00 0.00 79 1020.8
20260830161553 57 0 1.0 4.0 0.00 0.00 0.00 79 1020.9
20260830160044 57 0 2.0 5.0 0.00 0.00 0.00 80 1020.9
20260830154541 56 360 0.0 5.0 0.00 0.06 0.00 81 1021.0
20260830153040 55 360 2.0 4.0 0.00 0.06 0.00 80 1020.9
20260830151541 55 0 0.0 5.0 0.00 0.06 0.00 81 1020.8
20260830150044 54 148 2.0 5.0 0.00 0.06 0.00 81 1020.9
20260830144545 54 136 0.0 3.0 0.00 0.06 0.00 81 1020.8
20260830143046 54 173 1.0 3.0 0.00 0.06 0.00 81 1020.7
20260830141541 54 175 1.0 4.0 0.00 0.06 0.00 81 1020.5
20260830140041 53 0 0.0 2.0 0.00 0.06 0.00 81 1020.4
20260830134543 53 0 0.0 3.0 0.00 0.07 0.00 82 1020.4
20260830133058 53 155 1.0 4.0 0.00 0.07 0.00 82 1020.4
20260830131552 53 0 0.0 4.0 0.00 0.07 0.00 82 1020.4
20260830130055 53 0 0.0 0.0 0.00 0.07 0.00 84 1020.3
20260830124545 53 0 0.0 1.0 0.00 0.07 0.00 84 1020.4
20260830123042 53 0 0.0 0.0 0.00 0.07 0.00 84 1020.3
20260830121541 53 0 0.0 2.0 0.00 0.07 0.00 84 1020.4
20260830120058 53 0 0.0 2.0 0.00 0.07 0.00 84 1020.4
20260830114544 53 0 0.0 0.0 0.00 0.07 0.00 84 1020.3
20260830113040 53 0 0.0 2.0 0.00 0.07 0.00 84 1020.2
20260830111542 53 0 0.0 2.0 0.00 0.07 0.00 85 1020.1
20260830110039 52 0 1.0 3.0 0.00 0.07 0.00 86 1020.0
20260830104542 51 0 0.0 2.0 0.00 0.07 0.00 88 1020.2
20260830103040 51 0 0.0 1.0 0.00 0.07 0.00 88 1020.2
20260830101540 50 0 0.0 0.0 0.00 0.07 0.00 87 1020.2
20260830100041 51 0 0.0 0.0 0.00 0.07 0.00 87 1020.0